EW8559 Wallingford CT US current weather conditions

sailwx.info

Wind from 183

Air temperature -1.1° C
Dewpoint -5.0° C

Last reported at 2019-Dec-08 22:00 UTC.
Time now 2019-Dec-08 23:13 UTC

Location: N 41°26' W 072°47'.
View on Google Maps.

See reports from other nearby stations

  
Tides and Currents Weather Stations Pressure Air Temp Water Temp Dewpoint Dewpoint Depression Visibility Wind Speed Wind Dir Waves Ship Positions
date/time (UTC)wind fromknots sea level pressurealtimeterstation pressurevisibilityair tempwater tempwave heightnotes
2019-Dec-08 22:00 183 -1.1
2019-Dec-08 21:45 183 -0.6
2019-Dec-08 21:30 183 -0.0
2019-Dec-08 21:15 183 -0.0
2019-Dec-08 20:45 183 0.6
2019-Dec-08 20:30 172 0 gusting 3 0.6
2019-Dec-08 20:15 177 1.1
2019-Dec-08 20:00 289 0 gusting 6 1.1
2019-Dec-08 19:45 192 0 gusting 4 1.1
2019-Dec-08 19:30 261 1 gusting 6 1.1
2019-Dec-08 19:15 213 1 gusting 6 1.1
2019-Dec-08 19:00 324 0.6
2019-Dec-08 18:45 164 0 gusting 9 1.1
2019-Dec-08 18:30 199 0 gusting 6 1.1
2019-Dec-08 18:15 129 2 gusting 6 1.1
2019-Dec-08 18:02 113 0 gusting 4 1.7
2019-Dec-08 17:46 230 0 gusting 6 1.7
2019-Dec-08 17:32 277 2 gusting 7 1.7
2019-Dec-08 17:16 273 1 gusting 5 1.1
2019-Dec-08 17:02 203 1 gusting 6 0.6
2019-Dec-08 16:46 146 1 gusting 5 0.6
2019-Dec-08 16:31 185 1.1
2019-Dec-08 16:16 284 1.1
2019-Dec-08 16:01 295 0 gusting 6 0.6
2019-Dec-08 15:46 322 0.6
2019-Dec-08 15:30 239 0 gusting 2 -0.0
2019-Dec-08 15:16 289 -0.6
2019-Dec-08 15:00 151 -1.7
2019-Dec-08 14:45 151 -2.2
2019-Dec-08 14:30 151 -3.3
2019-Dec-08 14:15 151 -4.4
2019-Dec-08 14:00 151 -6.1
2019-Dec-08 13:45 151 -8.3
2019-Dec-08 13:30 151 -9.4
2019-Dec-08 13:15 151 -10.0
2019-Dec-08 13:00 151 -10.6
2019-Dec-08 12:45 151 -10.6
2019-Dec-08 12:30 151 -10.6
2019-Dec-08 12:15 151 -11.1
2019-Dec-08 12:00 151 -10.6
2019-Dec-08 11:46 151 -10.6
2019-Dec-08 11:31 151 -10.6
2019-Dec-08 11:17 151 -10.6
2019-Dec-08 11:01 151 -10.6
2019-Dec-08 10:47 151 -10.6
2019-Dec-08 10:31 151 -10.6
2019-Dec-08 10:16 151 -10.0
2019-Dec-08 10:02 151 -10.0
2019-Dec-08 09:46 151 -10.0
2019-Dec-08 09:31 151 -10.0
2019-Dec-08 09:16 151 -10.0
2019-Dec-08 09:01 151 -9.4
2019-Dec-08 08:46 151 -9.4
2019-Dec-08 08:31 151 -9.4
2019-Dec-08 08:17 151 -8.9
2019-Dec-08 08:01 151 -8.9
2019-Dec-08 07:46 151 -8.3
2019-Dec-08 07:30 151 -8.3
2019-Dec-08 07:15 151 -8.3
2019-Dec-08 07:01 151 -8.3
2019-Dec-08 06:46 151 -7.8
2019-Dec-08 06:31 151 -7.8
2019-Dec-08 06:16 151 -7.2
2019-Dec-08 06:00 151 -7.2
2019-Dec-08 05:45 151 -6.7
2019-Dec-08 05:30 151 -6.1
2019-Dec-08 05:15 151 -5.6
2019-Dec-08 05:00 151 -5.0
2019-Dec-08 04:45 155 -5.0
2019-Dec-08 04:30 155 -5.0
2019-Dec-08 04:15 110 -4.4
2019-Dec-08 04:00 008 -4.4
2019-Dec-08 03:47 045 0 gusting 2 -4.4
2019-Dec-08 03:31 070 -4.4
2019-Dec-08 03:17 070 -4.4
2019-Dec-08 03:01 083 -4.4
2019-Dec-08 02:47 083 -4.4
2019-Dec-08 02:31 083 -4.4
2019-Dec-08 02:16 083 -5.0
2019-Dec-08 02:03 083 -4.4
2019-Dec-08 01:47 083 -4.4
2019-Dec-08 01:31 083 -3.9
2019-Dec-08 01:16 083 -3.3
2019-Dec-08 01:01 083 -3.3
2019-Dec-08 00:47 083 -3.3
2019-Dec-08 00:31 083 -2.8
2019-Dec-08 00:15 083 -2.8
2019-Dec-08 00:02 079 -2.8
2019-Dec-07 23:47 079 -2.8
2019-Dec-07 23:32 097 -3.3
2019-Dec-07 23:15 296 -3.3
2019-Dec-07 23:00 296 -3.3
2019-Dec-07 22:46 296 -2.8
2019-Dec-07 22:31 296 -2.2
2019-Dec-07 22:16 296 -2.2
2019-Dec-07 22:00 296 -1.1
2019-Dec-07 21:45 296 -0.6
2019-Dec-07 21:31 296 -0.0
2019-Dec-07 21:16 046 0 gusting 4 -0.0
2019-Dec-07 21:01 008 0.6
2019-Dec-07 20:45 298 0.6
2019-Dec-07 20:30 301 0 gusting 2 1.1
2019-Dec-07 20:15 311 0 gusting 4 1.7
2019-Dec-07 20:00 320 1.1
2019-Dec-07 19:45 049 0 gusting 5 1.7
2019-Dec-07 19:31 332 1 gusting 6 1.7
2019-Dec-07 19:15 260 3 gusting 10 1.7
2019-Dec-07 19:00 314 1 gusting 5 2.2
2019-Dec-07 18:45 343 0 gusting 6 2.8
2019-Dec-07 18:30 280 1 gusting 8 2.8
2019-Dec-07 18:15 343 1 gusting 4 2.8
2019-Dec-07 18:00 348 1 gusting 7 2.2
2019-Dec-07 17:45 067 0 gusting 7 2.2
2019-Dec-07 17:30 268 1 gusting 12 2.2
2019-Dec-07 17:15 162 0 gusting 9 2.2
2019-Dec-07 17:00 216 1 gusting 6 1.7
2019-Dec-07 16:45 250 1 gusting 9 1.7
2019-Dec-07 16:33 323 2 gusting 8 1.7
2019-Dec-07 16:16 089 1 gusting 8 1.1
2019-Dec-07 16:03 089 0 gusting 6 1.1
2019-Dec-07 15:47 095 0 gusting 11 1.1
2019-Dec-07 15:31 296 1 gusting 6 1.1
2019-Dec-07 15:16 061 0.6
2019-Dec-07 15:01 339 -0.0
2019-Dec-07 14:47 087 -0.6
2019-Dec-07 14:31 284 0 gusting 3 -1.1
2019-Dec-07 14:16 280 -1.1
2019-Dec-07 14:02 056 -2.2
2019-Dec-07 13:46 320 -3.9
2019-Dec-07 13:31 101 -5.0
2019-Dec-07 13:16 101 -5.0
2019-Dec-07 13:01 101 -5.0
2019-Dec-07 12:46 101 -5.0
2019-Dec-07 12:30 101 -5.0
2019-Dec-07 12:15 101 -4.4
2019-Dec-07 12:01 101 -4.4
2019-Dec-07 11:46 101 -3.9
2019-Dec-07 11:31 062 -3.9
2019-Dec-07 11:15 062 -3.3
2019-Dec-07 11:00 062 -3.3
2019-Dec-07 10:45 065 -3.3
2019-Dec-07 10:30 065 -3.3
2019-Dec-07 10:15 065 -2.8
2019-Dec-07 10:00 358 -2.8
2019-Dec-07 09:45 118 -2.2
2019-Dec-07 09:30 013 0 gusting 3 -2.2
2019-Dec-07 09:15 116 -2.2
2019-Dec-07 08:49 034 -1.7
2019-Dec-07 08:32 339 0 gusting 4 -1.1
2019-Dec-07 08:16 322 -1.1
2019-Dec-07 08:02 354 -1.1
2019-Dec-07 07:46 070 -1.1
2019-Dec-07 07:32 067 -1.1
2019-Dec-07 07:17 079 -1.1
2019-Dec-07 07:00 064 -1.7
2019-Dec-07 06:46 068 -1.1
2019-Dec-07 06:30 068 -1.1
2019-Dec-07 06:16 350 -1.1
2019-Dec-07 06:00 110 -0.6
2019-Dec-07 05:46 022 -0.6
2019-Dec-07 05:30 068 -0.0
2019-Dec-07 05:15 068 0.6
2019-Dec-07 05:00 109 0.6
2019-Dec-07 04:45 082 1.1
2019-Dec-07 04:30 121 1.1
2019-Dec-07 04:15 358 1.7
2019-Dec-07 04:00 327 0 gusting 3 1.7
2019-Dec-07 03:45 089 0 gusting 3 1.7
2019-Dec-07 03:30 315 2.2
2019-Dec-07 03:15 039 2.8
2019-Dec-07 03:00 061 0 gusting 4 3.3
2019-Dec-07 02:45 302 0 gusting 3 3.9
2019-Dec-07 02:30 034 0 gusting 8 4.4
2019-Dec-07 02:15 205 5.0
2019-Dec-07 02:00 284 0 gusting 4 5.0
2019-Dec-07 01:45 283 1 gusting 7 5.6
2019-Dec-07 01:15 328 1 gusting 7 6.1
2019-Dec-07 01:00 293 1 gusting 6 6.1
2019-Dec-07 00:45 224 0 gusting 4 6.1
2019-Dec-07 00:30 307 2 gusting 6 6.1
2019-Dec-07 00:15 183 5.6
2019-Dec-07 00:00 261 0 gusting 6 5.0
2019-Dec-06 23:45 170 0 gusting 6 4.4
2019-Dec-06 23:30 270 3.9
2019-Dec-06 23:15 270 4.4
2019-Dec-06 23:00 270 5.0